COSMOS 89

导读

**COSMOS 89卫星摘要** COSMOS 89(宇宙89号)是独联体(CIS)苏联航天部门于1965年9月18日08:00发射的卫星,属于苏联庞大的“宇宙”系列卫星。该系列卫星涵盖军事、科学实验等多种任务,模糊命名用于保密。作为苏联早期航天项目的组成部分,它推动了苏联近地轨道技术验证与空间探索积累,为后续航天发展提供了宝贵经验,目前已完成任务退役。

基本信息
目录编号:
1587
目录名称:
COSMOS 89
国际标识:
1965-073D
轨道中心:
EARTH
卫星名称:
COSMOS 89
卫星全名:
--
卫星状态:
在轨 (已飞行22185 天)
发射日期:
1965-09-18 UTC
国别 :
俄罗斯(独联体) (CIS)
星等 :
--
轨道信息
数据来源 国际轨道数据 AOE轨道数据
星历时间 2026-06-14T14:05:11+0800
21小时前
查看轨道信息
2026-06-15T02:00:00+0800
10小时前
查看轨道信息
半长轴 7889.026km 7889.026km
偏心率 0.0165515 0.0165561
轨道倾角 56.055° 56.055°
近地点辐角 306.013° 306.747°
升交点赤经 153.091° 151.778°
平近点角 52.553° 106.582°
近地点 1380.313km 1380.277km
远地点 1641.465km 1641.501km
周期 116.224分钟 116.224分钟
每日圈数 12.389897 12.389897
详细信息
使用方式:
暂无
2D轨道图
3D轨道图
轨道高度分析图
轨道倾角分析图
轨道综合分析图
查看轨道综合分析图